ORBCOMM FM 3

Satellite information

Favourite Embed

Satellite Type and Status

PAYLOADIN ORBIT

Key statistics

Satellite ORBCOMM FM 3 at a glance.

Uptime

10168

Days in orbit

Revolutions

≈ 14.4

Per day

Orbit

SSO

Sun Synchronous Orbit

Inclination

108.0

Latest

Satellite identification and parameters

Extended collection of information and parameters for ORBCOMM FM 3.

Object identification

Identified? True

Debris? False

Object name: ORBCOMM FM 3

International designator: 1998-007B

Object number (NORAD): 25158

Object ID (CCSDS): 25158

Country: ORBITAL TELECOMMUNICATIONS SATELLITE (GLOBALSTAR) (ORB)

Current information (Y/N): Y

RCS size: MEDIUM

Orbital parameters

Period: 100.347 minutes

Inclination: 107.9634 deg

SMA: 7153.126 km

Apoapsis: 808.293 km

Periapsis: 741.688 km

RAAN: 141.5284 deg

Eccentricy: 0.00465565

Argument of periapsis: 295.4312 deg

Mean anomaly: 64.2014 deg

Mean motion: 14.35023367 rev/day

Mean motion (dot): 0.0000205 rev/day2

B* drag term: 0.00075511776 1/REarth

Two-line elements (TLE)

Creation date: Dec. 12, 2025, 10:14 a.m.

Reference frame: TEME

Reference center: EARTH

Epoch: Dec. 12, 2025, 6:26 a.m. UTC

TLE line 0: 0 ORBCOMM FM 3

TLE line 1: 1 25158U 98007B 25346.26867719 .00002050 00000-0 75512-3 0 9991

TLE line 2: 2 25158 107.9634 141.5284 0046556 295.4312 64.2014 14.35023367449581

Live tracking on map

Real-time ground track for satellite ORBCOMM FM 3.

In-orbit conjunctions

A list of the most updated potential collisions computed for object ORBCOMM FM 3.

Target Orbit TCA Probability of collision Miss distance Type
NOAA 16 DEB SSO 2025-05-31 19:37:38 0.0003434241 361.0 (m) DEBRIS
METEOR 2-8 DEB LEO 2025-05-14 07:42:23 0.0002003399 527.0 (m) DEBRIS
COSMOS 2251 DEB LEO 2025-05-07 19:58:14 0.0004379063 418.0 (m) DEBRIS
NOAA 16 DEB SSO 2025-04-25 07:53:49 0.0001455757 666.0 (m) DEBRIS
CZ-6A DEB LEO 2024-12-29 05:57:19 0.0001749833 676.0 (m) DEBRIS

Associated space launch

The US Navy GFO (Geosat Follow On), is a 369 kg minisatellite based on the Techstar platform to carry on the mission of Geosat. It was launched on the 10th February 1998 on a Taurus-2210 from VAFB alongside two Orbcomm satellites, into a 789 × 881 km (779 × 790 km planned) 108 degree inclined orbit.

ORBCOMM FM 3 was lifted into orbit during the mission ‘Taurus 2210 | GFO’, on board a Minotaur-C 2210 space rocket.

The launch took place on Feb. 10, 1998, 1:20 p.m. from Space Launch Complex 576E.

For more information about the launch, click the button.

Launch to space Taurus 2210 | GFO
Taurus 2210 | GFO

Agency: N/A

Status: Launch Successful

Launch date: Feb. 10, 1998, 1:20 p.m. UTC

Rocket: Minotaur-C 2210

Launch pad: Space Launch Complex 576E

Location: Vandenberg SFB, CA, USA

...

Latest news about this satellite

There are no fresh news available about this satellite. Check back as we update our databases every day.


Newsletter sign-up

Weekly statistics, charts and insights to help you stay on top of the space industry.